#timestamp,LO_Frequency,Hit,StdDev 
1634418015.0,286047002.6,P
1634418015.9,286047002.6,P
1634418035.8,286047001.9,Y
1634418055.6,286047000.3,P
1634418075.4,286047001.0,N
1634418095.3,286047000.8,N
1634418115.1,286046998.9,N
1634418135.8,286047000.9,N
1634418155.7,286047000.7,N
1634418175.5,286046998.9,N
1634418195.4,286047001.1,N
1634418215.2,286046998.9,N
1634418235.0,286046999.0,N
1634418235.9,286046999.0,N
1634418255.8,286046999.4,N
1634418275.6,286047000.8,N
1634418295.5,286047000.3,N
1634418315.3,286047000.5,N
1634418335.1,286047000.6,N
1634418355.9,286047000.4,N
1634418375.7,286047001.0,N
1634418395.5,286047000.8,N
1634418415.4,286047000.5,N
1634418435.2,286047002.8,N
1634418455.1,286047000.1,N
1634418456.0,286047000.1,N
1634418475.8,286047001.0,N
1634418495.6,286047001.5,N
1634418515.5,286047002.5,N
1634418535.3,286047002.0,N
1634418555.1,286047004.0,Y
1634418575.9,286047001.8,P
1634418595.7,286047001.4,N
1634418615.6,286047001.9,P
1634418635.4,286046998.6,N
1634418655.2,286046998.6,N
1634418675.1,286046998.8,N
1634418676.0,286046998.8,N
1634418695.8,286047000.9,N
1634418715.7,286046998.6,N
1634418735.5,286047000.3,N
1634418755.3,286047001.9,N
1634418775.2,286047004.3,Y
1634418795.0,286047004.3,P
1634418795.9,286047004.3,N
1634418815.7,286047004.2,N
1634418835.6,286047005.7,Y
1634418855.4,286047002.5,P
1634418875.3,286047002.4,P
1634418895.1,286047001.3,P
1634418915.8,286047004.3,Y
1634418935.7,286047000.1,P
1634418955.5,286046998.2,N
1634418975.4,286047000.4,N
1634418995.2,286046998.9,N
1634419015.0,286046999.1,N
1634419015.9,286046999.1,N
1634419035.8,286047000.7,N
1634419055.6,286047000.7,N
1634419075.4,286046998.6,N
1634419095.3,286046998.2,N
1634419115.1,286046998.2,N
1634419135.9,286046997.1,N
1634419155.7,286046999.0,N
1634419175.5,286047000.7,N
1634419195.4,286047001.1,N
1634419215.2,286046997.1,N
1634419235.1,286046995.9,N
1634419236.0,286046995.9,N
1634419255.8,286046995.3,N
1634419275.6,286046999.4,N
1634419295.5,286047000.7,N
1634419315.3,286047000.8,N
1634419335.1,286047001.0,N
1634419355.9,286047001.2,N
1634419375.7,286047000.7,N
1634419395.6,286047000.6,N
1634419415.4,286047001.9,N
1634419435.2,286047002.5,N
1634419455.1,286046998.5,N
1634419456.0,286046998.5,N
1634419475.8,286046999.4,N
1634419495.6,286046998.4,N
1634419515.5,286047001.2,N
1634419535.3,286047000.4,N
1634419555.2,286047000.6,N
1634419575.9,286046999.7,N
1634419595.7,286047004.1,N
1634419615.6,286047003.7,N
1634419635.4,286047003.7,N
1634419655.3,286047003.4,N
1634419675.1,286047001.6,N
1634419676.0,286047001.6,N
1634419695.8,286047001.4,N
1634419715.7,286047003.7,N
1634419735.5,286047002.6,N
1634419755.4,286047004.4,N
1634419775.2,286047002.6,N
1634419795.0,286047001.5,N
1634419795.9,286047001.5,N
1634419815.8,286047004.0,N
1634419835.6,286047004.3,N
1634419855.4,286047003.7,N
1634419875.3,286047005.3,N
1634419895.1,286047002.9,N
1634419915.9,286047002.2,N
1634419935.7,286047001.8,N
1634419955.5,286047006.0,Y
1634419975.4,286047002.3,P
1634419995.2,286046999.8,N
1634420015.1,286047003.8,P
1634420016.0,286047003.8,N
1634420035.8,286047005.5,Y
1634420055.6,286047000.7,P
1634420075.5,286047000.8,N
1634420095.3,286046998.8,N
1634420115.2,286046998.1,N
1634420135.9,286047000.8,N
1634420155.7,286046999.2,N
1634420175.6,286046999.3,N
1634420195.4,286046999.0,N
1634420215.2,286047001.0,N
1634420235.1,286047000.8,N
1634420236.0,286047000.8,N
1634420255.8,286046999.9,N
1634420275.7,286047000.5,N
1634420295.5,286047000.3,N
1634420315.3,286047000.0,N
1634420335.2,286047002.2,N
1634420355.9,286047000.8,N
1634420375.7,286047000.2,N
1634420395.6,286047001.9,N
1634420415.4,286047004.2,Y
1634420435.3,286047001.6,P
1634420455.1,286046998.5,N
1634420456.0,286046998.5,N
1634420475.8,286046999.6,N
1634420495.7,286046996.8,N
1634420515.5,286046998.5,N
1634420535.3,286047001.0,N
1634420555.2,286046998.8,N
1634420575.0,286046999.4,N
1634420575.9,286046999.4,N
1634420595.8,286047000.7,N
1634420615.6,286047001.5,N
1634420635.4,286047000.5,N
1634420655.3,286047000.1,N
1634420675.1,286047002.6,N
1634420695.8,286047000.2,N
1634420715.7,286047000.2,N
1634420735.5,286047000.6,N
1634420755.4,286047001.5,N
1634420775.2,286047001.4,N
1634420795.0,286047002.9,N
1634420795.9,286047002.9,N
1634420815.8,286047007.1,Y
1634420835.6,286047007.1,P
1634420855.5,286047006.0,N
1634420875.3,286047001.9,N
1634420895.1,286047002.6,N
1634420915.9,286046998.4,N
1634420935.7,286047000.6,N
1634420955.5,286046998.9,N
1634420975.4,286046997.3,N
1634420995.2,286046997.0,N
1634421015.1,286046998.6,N
1634421016.0,286046998.6,N
1634421035.8,286047000.1,N
1634421055.6,286047000.8,N
1634421075.5,286047000.4,N
1634421095.3,286047001.3,N
1634421115.1,286047003.4,N
1634421135.9,286047004.0,N
1634421155.7,286047006.0,N
1634421175.6,286047003.9,N
1634421195.4,286047004.0,N
1634421215.2,286047003.6,N
1634421235.1,286047001.8,N
1634421236.0,286047001.8,N
1634421255.8,286047000.6,N
1634421275.7,286047000.3,N
1634421295.5,286047001.6,N
1634421315.3,286047003.2,N
1634421335.2,286047002.9,N
1634421355.0,286047001.3,N
1634421355.9,286047001.3,N
1634421375.8,286047001.4,N
1634421395.6,286047003.9,N
1634421415.4,286047005.1,N
1634421435.3,286047007.0,Y
1634421455.1,286047005.4,P
1634421475.8,286047005.1,N
1634421495.7,286047005.7,P
1634421515.5,286047005.5,Y
1634421535.4,286046999.8,P
1634421555.2,286047000.1,N
1634421575.0,286047002.8,N
1634421575.9,286047002.8,N
1634421595.8,286047004.4,N
